Preview of NWS' New Version of Forecast
This preview is not operational and should not be used for support decisions.

Regional Weather Roundup (RWR)

Issued by National Weather Service (NWS)

                            
000
ASUS45 KBOI 210910
RWRID 

IDAHO REGIONAL WEATHER ROUNDUP
NATIONAL WEATHER SERVICE BOISE ID
300 AM MDT SAT SEP 21 2019

NOTE: "FAIR" INDICATES FEW OR NO CLOUDS BELOW 12000 FEET
WITH NO SIGNIFICANT WEATHER AND/OR OBSTRUCTIONS TO VISIBILITY

IDZ012-014-211000-
SOUTHWEST IDAHO

  
CITY           SKY/WX    TMP DP  RH WIND       PRES   REMARKS
BOISE          PTCLDY    49  43  80 NE5       30.10R                  
CALDWELL       CLOUDY    49  44  83 W7        30.10S                  
MOUNTAIN HOME  CLEAR     45  45 100 NW3       30.10S                  
$$

IDZ016-017-211000-
SOUTHCENTRAL IDAHO

  
CITY           SKY/WX    TMP DP  RH WIND       PRES   REMARKS
BURLEY         MOCLDY    49  39  68 SW9       30.10R                  
JEROME         CLEAR     45  39  79 SW7       30.10S                  
TWIN FALLS     CLEAR     44  38  79 SW13      30.11S                  
$$

IDZ019>023-211000-
SOUTHEAST IDAHO

  
CITY           SKY/WX    TMP DP  RH WIND       PRES   REMARKS
IDAHO FALLS    CLOUDY    46  43  89 S7        30.10S                  
POCATELLO      CLOUDY    48  40  73 SW15      30.11R                  
REXBURG        CLOUDY    44  41  89 NE3       30.10S                  
$$

IDZ006-010-011-018-031-032-211000-
CENTRAL IDAHO MOUNTAINS

  
CITY           SKY/WX    TMP DP  RH WIND       PRES   REMARKS
MCCALL         PTCLDY    44  38  79 N6        30.11F                  
HAILEY         PTCLDY    37  36  93 NW7       30.14R WCI  32          
STANLEY          N/A     31  28  89 CALM      30.17R                  
SALMON         CLOUDY    46  42  86 CALM      30.10R                  
CHALLIS        CLOUDY    42  35  76 CALM      30.12R                  
$$

IDZ002-004-006-007-026-211000-
NORTHERN IDAHO

  
CITY           SKY/WX    TMP DP  RH WIND       PRES   REMARKS
LEWISTON       MOCLDY    56  48  74 CALM      30.07S                  
LOWELL           N/A     54  52  93 CALM      30.11S                  
COEUR D'ALENE  CLEAR     49  48  97 S6        30.07R                  
MULLAN PASS    FOG       41  40  96 NW5       30.10S VSB 1/4          
$$